Location: Eschentzwiller
(47.7125°N, 7.3981°E)
Time: 03:30:31
(UTC+00:00)

USA 281 - Pass Details

Date: 27 October 2020
Orbit: 1078 x 1081 km, 106.0° (Epoch: 28 November)

Event Time Altitude Azimuth Distance (km) Brightness Sun altitude
Rises 16:39:13 0° 151° (SSE) 3,863 6.0 -3.9°
Reaches altitude 10° 16:41:42 10° 151° (SSE) 2,911 5.4 -4.3°
Maximum altitude 16:48:16 87° 63° (ENE) 1,087 3.3 -5.4°
Drops below altitude 10° 16:54:52 10° 335° (NNW) 2,930 5.7 -6.5°
Sets 16:57:23 0° 335° (NNW) 3,890 6.3 -6.9°
